CW9454 Weather Reports


time (UTC)temp
C
wind
direction
speed
KPH
gust
KPH
rain 1hr
cm
rain 24hr
cm
rain mn
cm
humidity
%
barometer
mb
20260507070027 13 322 0.0 14.5 0.03 0.43 0.10 85 1010.7
20260507065013 13 327 1.6 12.9 0.03 0.43 0.10 86 1011.0
20260507064028 13 346 0.0 4.8 0.05 0.43 0.10 86 1010.5
20260507063022 13 320 0.0 1.6 0.05 0.41 0.08 86 1010.5
20260507062018 13 311 0.0 3.2 0.08 0.41 0.08 85 1010.8
20260507061027 13 318 1.6 8.0 0.08 0.41 0.08 85 1010.8
20260507060030 13 338 1.6 16.1 0.08 0.41 0.08 83 1011.0
20260507055023 14 339 0.0 12.9 0.08 0.41 0.08 82 1010.7
20260507054018 15 18 3.2 16.1 0.05 0.38 0.05 83 1011.0
20260507053032 16 321 0.0 6.4 0.03 0.36 0.03 81 1010.6
20260507052014 16 326 0.0 12.9 0.00 0.33 0.00 78 1010.6
20260507051024 17 315 0.0 12.9 0.00 0.33 0.00 76 1011.3
20260507050041 17 306 0.0 17.7 0.00 0.33 0.00 75 1010.5
20260507045034 17 252 0.0 12.9 0.00 0.33 0.00 75 1010.5
20260507044029 17 279 3.2 14.5 0.00 0.33 0.00 76 1010.2
20260507043013 17 336 1.6 11.3 0.00 0.33 0.00 77 1010.3
20260507042028 18 322 0.0 4.8 0.00 0.33 0.00 77 1010.1
20260507041022 18 324 0.0 8.0 0.00 0.33 0.00 78 1009.8
20260507040031 18 340 0.0 4.8 0.00 0.33 0.00 78 1009.6
20260507035026 18 337 0.0 6.4 0.00 0.33 0.33 78 1009.9
20260507034021 18 332 0.0 6.4 0.00 0.33 0.33 77 1010.1
20260507033035 18 278 0.0 9.7 0.00 0.33 0.33 76 1010.0
20260507032029 18 267 1.6 6.4 0.00 0.33 0.33 76 1009.9
20260507031022 19 264 3.2 12.9 0.00 0.33 0.33 78 1009.8
20260507030050 19 326 0.0 4.8 0.00 0.33 0.33 79 1009.6
20260507025043 19 322 0.0 6.4 0.00 0.33 0.33 79 1009.7
20260507024101 19 309 1.6 8.0 0.00 0.33 0.33 81 1009.2
20260507023026 20 270 1.6 6.4 0.00 0.33 0.33 82 1009.4
20260507022020 20 276 0.0 6.4 0.00 0.33 0.33 82 1009.1
20260507021014 20 279 0.0 4.8 0.00 0.33 0.33 82 1009.1
20260507020041 20 279 0.0 0.0 0.00 0.33 0.33 82 1008.8
20260507015015 20 279 0.0 0.0 0.00 0.33 0.33 82 1009.0
20260507014028 20 279 0.0 0.0 0.00 0.33 0.33 81 1009.4
20260507013023 20 279 0.0 0.0 0.00 0.33 0.33 81 1009.2
20260507012016 20 279 0.0 0.0 0.00 0.33 0.33 81 1009.5
20260507011030 20 279 0.0 0.0 0.00 0.33 0.33 81 1009.5
20260507010017 20 279 0.0 0.0 0.00 0.33 0.33 80 1009.1
20260507005031 20 279 0.0 1.6 0.00 0.33 0.33 80 1009.2
20260507004045 20 279 0.0 0.0 0.00 0.33 0.33 80 1008.7
20260507003039 20 279 0.0 1.6 0.00 0.33 0.33 79 1008.9
20260507002031 20 279 0.0 3.2 0.00 0.33 0.33 79 1008.9
20260507001026 20 282 0.0 3.2 0.00 0.33 0.33 79 1008.9
20260507000014 21 288 0.0 1.6 0.00 0.33 0.33 78 1008.7
20260506235028 21 288 0.0 0.0 0.00 0.33 0.33 78 1008.8
20260506234013 21 288 0.0 1.6 0.00 0.33 0.33 78 1008.6
20260506233027 21 288 0.0 0.0 0.00 0.33 0.33 77 1008.5
20260506232050 21 288 0.0 4.8 0.00 0.33 0.33 77 1008.4
20260506231015 21 252 0.0 0.0 0.00 0.33 0.33 77 1008.5
20260506230048 21 254 0.0 4.8 0.00 0.33 0.33 76 1008.1
20260506225041 21 248 0.0 4.8 0.00 0.33 0.33 76 1008.3
20260506224014 21 275 0.0 4.8 0.00 0.33 0.33 75 1008.1
20260506223029 22 277 0.0 6.4 0.00 0.33 0.33 75 1008.4
20260506222015 22 282 1.6 11.3 0.00 0.33 0.33 75 1008.4
20260506221029 22 188 0.0 8.0 0.00 0.33 0.33 75 1008.4
20260506220015 22 246 0.0 12.9 0.00 0.33 0.33 75 1008.3
20260506215030 22 308 0.0 6.4 0.00 0.33 0.33 76 1008.4
20260506214025 22 250 6.4 14.5 0.00 0.33 0.33 74 1008.2
20260506213019 22 250 1.6 11.3 0.00 0.33 0.33 75 1008.2
20260506212013 22 190 0.0 6.4 0.00 0.33 0.33 74 1008.1
20260506211027 22 244 0.0 4.8 0.00 0.33 0.33 74 1008.0
20260506210037 22 234 0.0 11.3 0.00 0.33 0.33 73 1007.9
20260506205029 22 264 1.6 9.7 0.00 0.33 0.33 72 1007.8
20260506204024 23 244 1.6 6.4 0.00 0.33 0.33 71 1007.9
20260506203038 23 153 0.0 6.4 0.00 0.33 0.33 71 1007.8
20260506202033 23 246 3.2 16.1 0.00 0.33 0.33 71 1007.8
20260506201018 23 207 0.0 11.3 0.00 0.33 0.33 71 1007.7
20260506200037 23 275 1.6 12.9 0.00 0.33 0.33 72 1007.7
20260506195022 23 163 1.6 8.0 0.00 0.33 0.33 73 1007.8
20260506194015 22 170 0.0 9.7 0.00 0.33 0.33 73 1007.8
20260506193050 22 192 0.0 11.3 0.00 0.33 0.33 74 1007.9
20260506192023 22 171 1.6 16.1 0.00 0.33 0.33 75 1007.9
20260506191018 21 262 1.6 12.9 0.00 0.33 0.33 77 1008.0
20260506190022 21 285 0.0 16.1 0.00 0.33 0.33 78 1008.2
20260506185037 21 240 1.6 8.0 0.00 0.33 0.33 78 1008.5
20260506184027 21 219 1.6 9.7 0.00 0.33 0.33 78 1008.3
20260506183022 20 257 1.6 17.7 0.00 0.33 0.33 79 1008.5
20260506182016 20 178 3.2 14.5 0.00 0.33 0.33 79 1008.4
20260506181051 20 277 1.6 14.5 0.00 0.33 0.33 80 1008.6
20260506180019 20 148 3.2 19.3 0.00 0.33 0.33 82 1008.8
20260506175013 20 195 3.2 19.3 0.00 0.33 0.33 84 1008.6
20260506174027 19 268 1.6 11.3 0.00 0.33 0.33 85 1008.5
20260506173012 19 254 3.2 14.5 0.00 0.33 0.33 86 1008.7
20260506172036 18 230 1.6 16.1 0.00 0.33 0.33 87 1008.7
20260506171021 18 150 1.6 11.3 0.00 0.33 0.33 89 1008.7
20260506170038 18 311 1.6 9.7 0.00 0.33 0.33 90 1008.7
20260506165022 17 160 0.0 14.5 0.00 0.33 0.33 90 1009.0
20260506164018 17 196 0.0 16.1 0.00 0.33 0.33 90 1009.1
20260506163013 17 271 1.6 19.3 0.00 0.33 0.33 90 1009.0
20260506162027 17 121 1.6 12.9 0.00 0.33 0.33 91 1009.0
20260506161040 17 127 3.2 16.1 0.00 0.33 0.33 91 1009.1
20260506160029 17 161 0.0 14.5 0.05 0.33 0.33 90 1009.6
20260506155014 17 182 0.0 11.3 0.13 0.33 0.33 91 1009.6
20260506154038 16 140 0.0 9.7 0.20 0.33 0.33 90 1009.5
20260506153022 16 120 0.0 11.3 0.23 0.33 0.33 89 1009.7
20260506152017 16 180 1.6 8.0 0.25 0.33 0.33 89 1010.0
20260506151031 17 138 0.0 11.3 0.30 0.33 0.33 88 1010.4
20260506150021 17 207 1.6 8.0 0.28 0.28 0.28 87 1010.4
20260506145034 17 180 0.0 9.7 0.20 0.20 0.20 86 1010.6
20260506144023 17 136 0.0 4.8 0.13 0.13 0.13 85 1010.4
20260506143018 17 189 0.0 3.2 0.10 0.10 0.10 84 1010.3
20260506142014 18 175 0.0 4.8 0.08 0.08 0.08 82 1010.3
20260506141027 18 175 0.0 6.4 0.03 0.03 0.03 81 1010.4
20260506140015 18 157 0.0 8.0 0.00 0.00 0.00 80 1010.6
20260506135028 18 189 0.0 6.4 0.00 0.00 0.00 78 1010.8
20260506134013 18 192 0.0 8.0 0.00 0.00 0.00 78 1010.9
20260506133025 18 192 1.6 25.7 0.00 0.00 0.00 77 1010.5
20260506132041 18 170 1.6 11.3 0.00 0.00 0.00 77 1010.3
20260506131014 18 104 1.6 8.0 0.00 0.00 0.00 77 1010.2
20260506130022 18 169 1.6 12.9 0.00 0.00 0.00 76 1009.8
20260506125017 18 198 0.0 14.5 0.00 0.00 0.00 76 1009.9
20260506124101 18 163 1.6 11.3 0.00 0.00 0.00 76 1010.2
20260506123053 18 168 1.6 4.8 0.00 0.00 0.00 76 1010.4
20260506122047 18 184 1.6 12.9 0.00 0.00 0.00 76 1010.6
20260506121040 18 269 1.6 16.1 0.00 0.00 0.00 76 1010.5
20260506120030 18 168 0.0 9.7 0.00 0.00 0.00 75 1010.4
20260506115025 18 184 0.0 17.7 0.00 0.00 0.00 76 1010.4
20260506114039 18 249 0.0 12.9 0.00 0.00 0.00 76 1010.2
20260506113024 18 252 0.0 11.3 0.00 0.00 0.00 77 1009.7
20260506112019 18 138 0.0 19.3 0.00 0.00 0.00 77 1010.0
20260506111013 18 216 1.6 17.7 0.00 0.00 0.00 77 1009.7
20260506110020 18 152 0.0 14.5 0.00 0.00 0.00 76 1009.4
20260506105015 18 168 3.2 14.5 0.00 0.00 0.00 76 1009.4
20260506104025 18 302 1.6 11.3 0.00 0.00 0.00 77 1009.4
20260506103040 18 180 1.6 14.5 0.00 0.00 0.00 76 1009.4
20260506102014 18 140 1.6 8.0 0.00 0.00 0.00 76 1009.4
20260506101028 18 107 1.6 12.9 0.00 0.00 0.00 76 1009.3
20260506100036 18 166 1.6 12.9 0.00 0.00 0.00 76 1009.4
20260506095029 18 202 1.6 12.9 0.00 0.00 0.00 75 1009.5
20260506094025 18 142 1.6 8.0 0.00 0.00 0.00 75 1009.5
20260506093040 18 138 1.6 8.0 0.00 0.00 0.00 75 1009.5
20260506092054 18 186 0.0 6.4 0.00 0.00 0.00 74 1009.6
20260506091027 19 150 1.6 12.9 0.00 0.00 0.00 74 1009.7
20260506090037 19 154 0.0 8.0 0.00 0.00 0.00 73 1009.7
20260506085031 19 180 0.0 12.9 0.00 0.00 0.00 73 1009.7
20260506084045 19 161 0.0 12.9 0.00 0.00 0.00 72 1009.6
20260506083037 20 192 1.6 9.7 0.00 0.00 0.00 72 1009.5
20260506082023 20 189 1.6 6.4 0.00 0.00 0.00 71 1009.5
20260506081047 20 120 1.6 12.9 0.00 0.00 0.00 71 1009.5
20260506073044 21 117 0.0 9.7 0.00 0.00 0.00 68 1009.8
20260506072036 21 164 1.6 11.3 0.00 0.00 0.00 67 1009.9
20260506071018 21 159 0.0 17.7 0.00 0.00 0.00 67 1009.9